Location: Castelnau
(43.6639°N, 0.8431°W)
Time: 22:35:48
(UTC+00:00)

Cosmos 407 Rocket - Pass Details

Date: 13 January 2026
Orbit: 738 x 782 km, 74.0° (Epoch: 11 February)

Event Time Altitude Azimuth Distance (km) Brightness Sun altitude
Rises 06:46:55 0° 193° (SSW) 3,161 6.8 -8.7°
Reaches altitude 10° 06:49:15 10° 192° (SSW) 2,246 6.1 -8.3°
Maximum altitude 06:54:19 75° 108° (ESE) 778 3.8 -7.4°
Drops below altitude 10° 06:59:28 10° 24° (NNE) 2,285 6.0 -6.6°
Sets 07:01:52 0° 23° (NNE) 3,221 6.7 -6.2°
